EW6902 Weather Reports


time (UTC)temp
C
wind
direction
speed
KPH
gust
KPH
rain 1hr
cm
rain 24hr
cm
rain mn
cm
humidity
%
barometer
mb
20260906101505 21 0 0.0 1.6 0.00 0.30 0.03 92 1013.1
20260906101003 21 0 0.0 1.6 0.00 0.30 0.03 92 1012.9
20260906100503 21 0 0.0 1.6 0.03 0.30 0.03 92 1012.8
20260906100003 21 0 0.0 1.6 0.03 0.30 0.03 92 1012.7
20260906095717 21 0 0.0 1.6 0.03 0.30 0.03 92 1012.8
20260906095003 21 0 0.0 1.6 0.03 0.30 0.03 92 1012.7
20260906094504 21 0 0.0 1.6 0.03 0.30 0.03 92 1012.7
20260906094003 21 0 0.0 1.6 0.03 0.30 0.03 92 1012.6
20260906093503 21 0 0.0 1.6 0.03 0.30 0.03 92 1012.6
20260906093217 21 0 0.0 1.6 0.03 0.30 0.03 92 1012.6
20260906092505 21 0 0.0 1.6 0.03 0.30 0.03 92 1012.6
20260906092003 21 0 0.0 1.6 0.03 0.30 0.03 92 1012.5
20260906091503 22 0 0.0 1.6 0.03 0.30 0.03 92 1012.4
20260906091003 22 0 0.0 1.6 0.03 0.30 0.03 92 1012.5
20260906090503 22 0 0.0 3.2 0.00 0.28 0.00 92 1012.5
20260906090004 22 0 0.0 3.2 0.00 0.28 0.00 92 1012.4
20260906085503 22 0 0.0 1.6 0.00 0.28 0.00 92 1012.4
20260906085003 22 0 0.0 3.2 0.00 0.28 0.00 91 1012.4
20260906084503 22 0 0.0 3.2 0.00 0.28 0.00 92 1012.5
20260906084003 22 0 0.0 1.6 0.00 0.28 0.00 92 1012.4
20260906083503 22 0 0.0 1.6 0.00 0.28 0.00 92 1012.4
20260906083005 22 161 1.6 1.6 0.00 0.28 0.00 92 1012.4
20260906082503 22 163 1.6 3.2 0.00 0.28 0.00 92 1012.3
20260906082214 22 165 1.6 3.2 0.00 0.28 0.00 92 1012.3
20260906081503 22 0 0.0 3.2 0.00 0.28 0.00 92 1012.2
20260906081003 22 0 0.0 3.2 0.00 0.28 0.00 92 1012.2
20260906080503 22 0 0.0 1.6 0.00 0.28 0.00 92 1012.0
20260906080004 22 0 0.0 1.6 0.00 0.28 0.00 92 1012.0
20260906075503 22 0 0.0 1.6 0.00 0.28 0.00 92 1012.0
20260906075004 22 0 0.0 1.6 0.00 0.28 0.00 92 1011.9
20260906074503 22 0 0.0 1.6 0.00 0.28 0.00 92 1011.9
20260906074003 22 0 0.0 1.6 0.00 0.28 0.00 92 1011.9
20260906073503 22 0 0.0 1.6 0.00 0.28 0.00 92 1011.9
20260906073003 22 0 0.0 1.6 0.00 0.28 0.00 92 1011.8
20260906072503 22 146 1.6 1.6 0.00 0.28 0.00 92 1011.8
20260906072003 22 152 1.6 1.6 0.00 0.28 0.00 92 1011.9
20260906071712 22 0 0.0 1.6 0.00 0.28 0.00 92 1012.0
20260906071215 22 0 0.0 1.6 0.00 0.28 0.00 92 1011.9
20260906070503 22 0 0.0 1.6 0.00 0.28 0.00 92 1012.0
20260906070216 22 0 0.0 1.6 0.00 0.28 0.00 92 1012.1
20260906065503 22 0 0.0 1.6 0.00 0.28 0.00 92 1012.3
20260906065003 22 0 0.0 1.6 0.00 0.28 0.00 91 1012.2
20260906064503 22 0 0.0 3.2 0.00 0.28 0.00 92 1012.3
20260906064003 22 0 0.0 3.2 0.00 0.28 0.00 92 1012.3
20260906063503 22 0 0.0 1.6 0.00 0.28 0.00 92 1012.3
20260906063003 22 0 0.0 1.6 0.00 0.28 0.00 92 1012.4
20260906062503 22 0 0.0 0.0 0.00 0.28 0.00 92 1012.4
20260906062003 22 0 0.0 0.0 0.00 0.28 0.00 92 1012.5
20260906061503 22 0 0.0 1.6 0.00 0.28 0.00 92 1012.6
20260906061216 22 0 0.0 1.6 0.00 0.28 0.00 91 1012.6
20260906060503 22 0 0.0 1.6 0.00 0.28 0.00 92 1012.5
20260906060004 22 0 0.0 1.6 0.00 0.28 0.00 92 1012.5
20260906055715 22 0 0.0 1.6 0.00 0.28 0.00 92 1012.5
20260906055003 22 0 0.0 3.2 0.00 0.28 0.00 91 1012.7
20260906054503 22 0 0.0 3.2 0.00 0.28 0.00 91 1012.8
20260906054003 22 0 0.0 1.6 0.00 0.28 0.00 92 1012.8
20260906053717 22 0 0.0 1.6 0.00 0.28 0.00 92 1012.9
20260906053215 22 0 0.0 1.6 0.00 0.28 0.00 91 1013.1
20260906052503 22 0 0.0 1.6 0.00 0.28 0.00 91 1013.0
20260906052003 22 0 0.0 3.2 0.00 0.28 0.00 91 1013.0
20260906051503 22 0 0.0 3.2 0.00 0.28 0.00 91 1013.1
20260906051217 22 0 0.0 3.2 0.00 0.28 0.00 91 1013.2
20260906050503 22 0 0.0 3.2 0.00 0.28 0.00 91 1013.2
20260906050003 22 0 0.0 3.2 0.00 0.28 0.00 91 1013.2
20260906045503 22 0 0.0 1.6 0.00 0.28 0.00 92 1013.2
20260906045004 22 0 0.0 1.6 0.00 0.28 0.00 92 1013.2
20260906044503 22 0 0.0 1.6 0.00 0.28 0.00 91 1013.2
20260906044003 22 0 0.0 1.6 0.00 0.28 0.00 91 1013.3
20260906043503 22 0 0.0 1.6 0.00 0.28 0.00 91 1013.4
20260906043003 22 0 0.0 1.6 0.00 0.28 0.00 91 1013.5
20260906042503 22 0 0.0 1.6 0.00 0.28 0.00 91 1013.5
20260906042003 22 0 0.0 1.6 0.00 0.28 0.00 91 1013.5
20260906041503 22 0 0.0 0.0 0.00 0.28 0.00 91 1013.5
20260906041003 22 0 0.0 1.6 0.00 0.28 0.00 91 1013.5
20260906040503 22 0 0.0 1.6 0.00 0.28 0.00 91 1013.5
20260906040015 22 0 0.0 1.6 0.00 0.28 0.00 91 1013.5
20260906035503 22 0 0.0 1.6 0.00 0.28 0.28 91 1013.5
20260906035003 22 0 0.0 1.6 0.00 0.28 0.28 91 1013.5
20260906034503 23 0 0.0 1.6 0.00 0.28 0.28 91 1013.5
20260906034003 23 0 0.0 1.6 0.00 0.28 0.28 91 1013.7
20260906033503 23 0 0.0 1.6 0.00 0.28 0.28 91 1013.6
20260906033004 23 0 0.0 1.6 0.00 0.28 0.28 91 1013.7
20260906032503 23 0 0.0 1.6 0.00 0.28 0.28 91 1013.7
20260906032217 23 0 0.0 1.6 0.00 0.28 0.28 91 1013.7
20260906031503 23 0 0.0 1.6 0.00 0.28 0.28 91 1013.6
20260906031003 23 0 0.0 3.2 0.00 0.28 0.28 91 1013.6
20260906030503 23 0 0.0 3.2 0.00 0.28 0.28 91 1013.6
20260906030004 23 0 0.0 1.6 0.00 0.28 0.28 91 1013.5
20260906025717 23 0 0.0 1.6 0.00 0.28 0.28 91 1013.5
20260906025005 23 0 0.0 3.2 0.00 0.28 0.28 91 1013.6
20260906024504 23 0 0.0 3.2 0.00 0.28 0.28 91 1013.7
20260906024003 23 0 0.0 1.6 0.00 0.28 0.28 91 1013.6
20260906023503 23 0 0.0 1.6 0.00 0.28 0.28 91 1013.5
20260906023003 23 156 1.6 3.2 0.00 0.28 0.28 91 1013.5
20260906022715 23 162 1.6 3.2 0.00 0.28 0.28 91 1013.4
20260906022003 23 154 1.6 3.2 0.00 0.28 0.28 91 1013.5
20260906021503 23 152 1.6 3.2 0.00 0.28 0.28 91 1013.4
20260906021003 23 0 0.0 1.6 0.00 0.28 0.28 91 1013.3
20260906020503 23 0 0.0 1.6 0.00 0.28 0.28 91 1013.3
20260906020214 23 0 0.0 1.6 0.00 0.28 0.28 91 1013.3
20260906015503 23 0 0.0 1.6 0.00 0.28 0.28 91 1013.1
20260906015215 23 0 0.0 1.6 0.00 0.28 0.28 91 1013.1
20260906014503 23 0 0.0 1.6 0.00 0.28 0.28 91 1013.2
20260906014003 23 0 0.0 1.6 0.00 0.28 0.28 90 1013.1
20260906013503 23 0 0.0 1.6 0.00 0.28 0.28 91 1013.1
20260906013003 23 0 0.0 1.6 0.00 0.28 0.28 90 1013.0
20260906012505 23 0 0.0 1.6 0.00 0.28 0.28 90 1012.9
20260906012003 23 0 0.0 1.6 0.00 0.28 0.28 90 1012.9
20260906011503 23 0 0.0 1.6 0.00 0.28 0.28 91 1012.8
20260906011003 23 0 0.0 1.6 0.00 0.28 0.28 90 1012.8
20260906010717 23 0 0.0 1.6 0.00 0.28 0.28 90 1012.9
20260906010003 24 0 0.0 3.2 0.00 0.28 0.28 91 1012.8
20260906005503 24 0 0.0 3.2 0.00 0.28 0.28 90 1012.7
20260906005003 24 0 0.0 3.2 0.00 0.28 0.28 90 1012.7
20260906004503 24 0 0.0 3.2 0.00 0.28 0.28 90 1012.8
20260906004003 24 0 0.0 3.2 0.00 0.28 0.28 90 1012.7
20260906003503 24 0 0.0 3.2 0.00 0.28 0.28 90 1012.5
20260906003004 24 0 0.0 1.6 0.00 0.28 0.28 90 1012.6
20260906002503 24 0 0.0 1.6 0.00 0.28 0.28 90 1012.6
20260906002003 24 138 1.6 3.2 0.00 0.28 0.28 90 1012.6
20260906001503 24 0 0.0 3.2 0.00 0.28 0.28 90 1012.5
20260906001003 24 150 1.6 3.2 0.00 0.28 0.28 90 1012.4
20260906000503 24 0 0.0 3.2 0.00 0.28 0.28 90 1012.4
20260906000004 24 0 0.0 1.6 0.00 0.28 0.28 90 1012.4
20260905235503 24 0 0.0 1.6 0.00 0.28 0.28 89 1012.4
20260905235003 25 0 0.0 3.2 0.00 0.28 0.28 89 1012.4
20260905234503 25 0 0.0 3.2 0.00 0.28 0.28 89 1012.4
20260905234003 25 0 0.0 3.2 0.00 0.28 0.28 89 1012.3
20260905233503 25 0 0.0 3.2 0.00 0.28 0.28 89 1012.2
20260905233003 25 0 0.0 3.2 0.00 0.28 0.28 89 1012.3
20260905232503 25 0 0.0 3.2 0.00 0.28 0.28 88 1012.1
20260905232214 25 0 0.0 3.2 0.00 0.28 0.28 88 1012.1
20260905231503 25 0 0.0 3.2 0.00 0.28 0.28 88 1012.0
20260905231003 25 0 0.0 3.2 0.00 0.28 0.28 88 1012.2
20260905230503 25 166 1.6 3.2 0.00 0.28 0.28 88 1012.3
20260905230003 25 173 1.6 3.2 0.00 0.28 0.28 88 1012.1
20260905225503 25 173 1.6 3.2 0.00 0.28 0.28 88 1012.2
20260905225003 25 168 1.6 3.2 0.00 0.28 0.28 88 1012.2
20260905224503 26 168 1.6 3.2 0.00 0.28 0.28 88 1012.0
20260905224003 26 0 0.0 3.2 0.00 0.28 0.28 88 1011.9
20260905223503 26 0 0.0 4.8 0.00 0.28 0.28 88 1011.8
20260905223003 26 157 1.6 4.8 0.00 0.28 0.28 88 1011.7
20260905222717 26 158 1.6 3.2 0.00 0.28 0.28 89 1011.7
20260905222003 25 159 1.6 3.2 0.00 0.28 0.28 90 1011.6
20260905221503 25 165 1.6 3.2 0.00 0.28 0.28 90 1011.8
20260905221003 25 160 1.6 3.2 0.00 0.28 0.28 90 1011.9
20260905220503 25 158 1.6 3.2 0.00 0.28 0.28 90 1011.8
20260905220004 25 0 0.0 3.2 0.00 0.28 0.28 89 1011.7
20260905215503 25 0 0.0 4.8 0.00 0.28 0.28 90 1011.8
20260905215003 25 0 0.0 4.8 0.00 0.28 0.28 89 1011.9
20260905214503 25 157 1.6 3.2 0.00 0.28 0.28 90 1012.1
20260905214003 25 149 1.6 3.2 0.00 0.28 0.28 90 1012.3
20260905213503 25 144 1.6 3.2 0.00 0.28 0.28 90 1012.4
20260905213003 25 151 1.6 3.2 0.00 0.28 0.28 90 1012.6
20260905212503 25 0 0.0 3.2 0.00 0.28 0.28 90 1012.6
20260905212003 25 0 0.0 3.2 0.00 0.28 0.28 91 1012.8
20260905211503 25 129 1.6 3.2 0.00 0.28 0.28 90 1012.8
20260905211003 25 85 1.6 3.2 0.00 0.28 0.28 90 1012.7
20260905210503 25 0 0.0 3.2 0.00 0.28 0.28 91 1012.9
20260905210004 24 160 1.6 3.2 0.00 0.28 0.28 90 1013.0
20260905205503 24 151 1.6 3.2 0.00 0.28 0.28 90 1012.9
20260905205003 24 101 1.6 3.2 0.00 0.28 0.28 90 1012.8
20260905204716 24 126 1.6 3.2 0.00 0.28 0.28 90 1012.8
20260905204003 24 153 1.6 3.2 0.00 0.28 0.28 90 1012.5
20260905203503 24 157 1.6 3.2 0.00 0.28 0.28 89 1012.5
20260905203004 24 156 1.6 3.2 0.00 0.28 0.28 89 1012.4
20260905202503 24 0 0.0 3.2 0.00 0.28 0.28 90 1012.4
20260905202003 24 0 0.0 3.2 0.00 0.28 0.28 90 1012.6
20260905201714 24 118 1.6 3.2 0.00 0.28 0.28 90 1012.6
20260905201003 24 77 1.6 3.2 0.00 0.28 0.28 89 1012.5
20260905200503 24 20 1.6 3.2 0.00 0.28 0.28 89 1012.7
20260905200003 24 348 1.6 6.4 0.00 0.28 0.28 90 1012.9
20260905195503 24 20 1.6 6.4 0.00 0.28 0.28 90 1013.0
20260905195004 24 23 1.6 6.4 0.05 0.28 0.28 90 1013.1
20260905194717 23 17 1.6 6.4 0.08 0.28 0.28 90 1013.1
20260905194003 23 63 1.6 3.2 0.28 0.28 0.28 89 1013.0
20260905193503 23 354 1.6 3.2 0.28 0.28 0.28 89 1013.1
20260905193003 23 10 1.6 3.2 0.28 0.28 0.28 89 1012.8
20260905192503 23 48 1.6 3.2 0.28 0.28 0.28 89 1012.8
20260905192217 23 84 1.6 3.2 0.28 0.28 0.28 89 1012.7
20260905191715 23 110 1.6 3.2 0.28 0.28 0.28 89 1012.5
20260905191003 23 148 1.6 4.8 0.28 0.28 0.28 88 1012.4
20260905190503 23 159 1.6 4.8 0.28 0.28 0.28 87 1012.4
20260905190004 24 147 3.2 4.8 0.28 0.28 0.28 86 1012.4
20260905185503 25 139 3.2 6.4 0.28 0.28 0.28 84 1012.8
20260905185003 26 30 3.2 14.5 0.23 0.23 0.23 80 1013.0
20260905184718 26 354 3.2 14.5 0.20 0.20 0.23 78 1013.2
20260905184215 28 358 6.4 17.7 0.05 0.05 0.05 71 1013.8
20260905183714 30 4 8.0 29.0 0.00 0.00 0.00 65 1014.2
20260905183003 33 33 3.2 29.0 0.00 0.00 0.00 59 1013.9
20260905182714 33 18 1.6 6.4 0.00 0.00 0.00 61 1013.2
20260905182212 33 154 1.6 3.2 0.00 0.00 0.00 63 1012.6
20260905181503 34 163 1.6 3.2 0.00 0.00 0.00 63 1012.2
20260905181003 34 155 1.6 4.8 0.00 0.00 0.00 61 1012.5
20260905180716 35 149 1.6 6.4 0.00 0.00 0.00 58 1012.6
20260905180003 35 134 1.6 6.4 0.00 0.00 0.00 57 1012.8
20260905175503 35 148 1.6 3.2 0.00 0.00 0.00 55 1012.9
20260905175003 35 153 1.6 4.8 0.00 0.00 0.00 55 1013.1
20260905174503 35 123 1.6 4.8 0.00 0.00 0.00 55 1013.2
20260905174003 35 58 1.6 4.8 0.00 0.00 0.00 58 1013.3
20260905173503 35 19 3.2 8.0 0.00 0.00 0.00 55 1013.3
20260905173003 36 32 3.2 8.0 0.00 0.00 0.00 54 1013.3
20260905172503 36 42 3.2 6.4 0.00 0.00 0.00 54 1013.5
20260905172003 36 22 1.6 6.4 0.00 0.00 0.00 55 1013.6
20260905171503 35 76 1.6 6.4 0.00 0.00 0.00 58 1013.7
20260905171214 35 24 1.6 8.0 0.00 0.00 0.00 57 1013.8
20260905170503 35 20 1.6 8.0 0.00 0.00 0.00 57 1013.9
20260905170003 35 53 1.6 6.4 0.00 0.00 0.00 57 1013.9
20260905165713 35 66 1.6 6.4 0.00 0.00 0.00 56 1013.9
20260905165216 35 111 3.2 6.4 0.00 0.00 0.00 56 1013.9
20260905164503 35 44 3.2 9.7 0.00 0.00 0.00 59 1014.0
20260905164003 35 8 3.2 9.7 0.00 0.00 0.00 59 1014.2
20260905163503 35 360 3.2 9.7 0.00 0.00 0.00 56 1014.3
20260905163003 35 359 3.2 9.7 0.00 0.00 0.00 59 1014.4
20260905162503 35 12 3.2 9.7 0.00 0.00 0.00 57 1014.4
20260905162003 35 12 3.2 6.4 0.00 0.00 0.00 59 1014.4
20260905161503 34 4 3.2 8.0 0.00 0.00 0.00 58 1014.5
20260905161003 34 59 1.6 8.0 0.00 0.00 0.00 57 1014.4
20260905160505 34 54 1.6 6.4 0.00 0.00 0.00 62 1014.5
20260905160003 33 29 1.6 6.4 0.00 0.00 0.00 60 1014.5
20260905155503 33 96 1.6 6.4 0.00 0.00 0.00 65 1014.5
20260905155003 33 151 1.6 4.8 0.00 0.00 0.00 65 1014.6
20260905154503 33 64 1.6 4.8 0.00 0.00 0.00 68 1014.6
20260905154003 33 72 1.6 4.8 0.00 0.00 0.00 69 1014.7
20260905153503 33 152 1.6 4.8 0.00 0.00 0.00 67 1014.6
20260905153214 33 149 1.6 8.0 0.00 0.00 0.00 66 1014.6
20260905152503 32 156 1.6 8.0 0.00 0.00 0.00 68 1014.7
20260905152003 32 154 1.6 3.2 0.00 0.00 0.00 69 1014.6
20260905151712 32 144 1.6 6.4 0.00 0.00 0.00 71 1014.6
20260905151003 32 134 1.6 6.4 0.00 0.00 0.00 71 1014.7
20260905150505 31 149 1.6 3.2 0.00 0.00 0.00 74 1014.7
20260905150004 31 136 1.6 4.8 0.00 0.00 0.00 76 1014.7
20260905145503 31 71 1.6 6.4 0.00 0.00 0.00 77 1014.7
20260905145003 30 7 3.2 6.4 0.00 0.00 0.00 77 1014.8
20260905144715 30 358 3.2 6.4 0.00 0.00 0.00 78 1014.8
20260905144003 30 3 1.6 6.4 0.00 0.00 0.00 81 1014.8
20260905143503 29 115 1.6 3.2 0.00 0.00 0.00 81 1014.6
20260905143003 28 125 1.6 3.2 0.00 0.00 0.00 81 1014.7
20260905142503 28 84 1.6 6.4 0.00 0.00 0.00 82 1014.7
20260905142216 28 83 1.6 6.4 0.00 0.00 0.00 82 1014.8
20260905141503 28 130 1.6 3.2 0.00 0.00 0.00 82 1014.9
20260905141003 27 158 1.6 3.2 0.00 0.00 0.00 84 1014.9
20260905140503 27 0 0.0 3.2 0.00 0.00 0.00 84 1014.9
20260905140217 27 0 0.0 4.8 0.00 0.00 0.00 84 1015.0
20260905135503 27 0 0.0 4.8 0.00 0.00 0.00 84 1014.9
20260905135003 26 0 0.0 3.2 0.00 0.00 0.00 85 1014.9
20260905134504 26 0 0.0 3.2 0.00 0.00 0.00 86 1014.9
20260905134003 26 0 0.0 3.2 0.00 0.00 0.00 86 1015.0
20260905133503 26 0 0.0 1.6 0.00 0.00 0.00 86 1015.1
20260905133003 26 0 0.0 1.6 0.00 0.00 0.00 87 1015.0
20260905132503 25 0 0.0 3.2 0.00 0.00 0.00 87 1015.0
20260905132003 25 0 0.0 3.2 0.00 0.00 0.00 88 1014.9
20260905131503 25 0 0.0 3.2 0.00 0.00 0.00 88 1015.0
20260905131003 25 0 0.0 3.2 0.00 0.00 0.00 88 1014.9
20260905130503 25 0 0.0 1.6 0.00 0.00 0.00 89 1015.0
20260905130004 24 0 0.0 1.6 0.00 0.00 0.00 89 1015.0
20260905125503 24 0 0.0 1.6 0.00 0.00 0.00 90 1015.0
20260905125009 24 0 0.0 1.6 0.00 0.00 0.00 90 1015.1
20260905124503 24 0 0.0 1.6 0.00 0.00 0.00 91 1015.2
20260905124003 24 0 0.0 1.6 0.00 0.00 0.00 91 1015.2
20260905123503 23 0 0.0 1.6 0.00 0.00 0.00 91 1015.1
20260905123003 23 0 0.0 1.6 0.00 0.00 0.00 91 1015.1
20260905122503 23 0 0.0 1.6 0.00 0.00 0.00 91 1015.1
20260905122003 23 0 0.0 1.6 0.00 0.00 0.00 91 1015.1
20260905121503 23 0 0.0 1.6 0.00 0.00 0.00 91 1015.0
20260905121003 23 0 0.0 1.6 0.00 0.00 0.00 91 1015.1
20260905120503 23 0 0.0 1.6 0.00 0.00 0.00 91 1015.1
20260905120218 23 0 0.0 1.6 0.00 0.00 0.00 91 1015.1
20260905115503 23 0 0.0 1.6 0.00 0.00 0.00 91 1015.0
20260905115003 23 0 0.0 1.6 0.00 0.00 0.00 91 1015.1
20260905114717 23 0 0.0 1.6 0.00 0.00 0.00 91 1015.0
20260905114003 23 0 0.0 1.6 0.00 0.00 0.00 91 1014.9
20260905113503 23 0 0.0 1.6 0.00 0.00 0.00 91 1014.8
20260905113003 23 0 0.0 1.6 0.00 0.00 0.00 91 1014.6
20260905112503 23 0 0.0 1.6 0.00 0.00 0.00 90 1014.6
20260905112217 23 0 0.0 1.6 0.00 0.00 0.00 91 1014.5
20260905111503 23 0 0.0 1.6 0.00 0.00 0.00 90 1014.4
20260905111004 23 0 0.0 1.6 0.00 0.00 0.00 90 1014.4
20260905110503 23 0 0.0 1.6 0.00 0.00 0.00 90 1014.2
20260905110004 23 0 0.0 1.6 0.00 0.00 0.00 90 1014.2
20260905105503 23 0 0.0 1.6 0.00 0.00 0.00 90 1014.1
20260905105215 23 0 0.0 1.6 0.00 0.00 0.00 90 1014.1
20260905104503 23 0 0.0 1.6 0.00 0.00 0.00 90 1014.0
20260905104216 23 0 0.0 1.6 0.00 0.00 0.00 90 1014.0
20260905103714 23 0 0.0 1.6 0.00 0.00 0.00 90 1013.9
20260905103003 23 0 0.0 1.6 0.00 0.00 0.00 90 1013.9
20260905102503 23 0 0.0 1.6 0.00 0.00 0.00 90 1013.9
20260905102006 23 0 0.0 1.6 0.00 0.00 0.00 89 1013.9